Weather History for KPVU - August, 2014

Change the Weather History Date:

Thursday, August 7, 2014

  Actual Average Record
Temperature  
Mean Temperature 68 °F -  
Max Temperature 80 °F - - ()
Min Temperature 55 °F - - ()
Cooling Degree Days 2    
Growing Degree Days 18 (Base 50)    
Moisture  
Dew Point 53 °F    
Average Humidity 65    
Maximum Humidity 88    
Minimum Humidity 34    
Precipitation  
Precipitation 0.00 in - - ()
Sea Level Pressure  
Sea Level Pressure 30.12 in    
Wind  
Wind Speed 7 mph (NNW)    
Max Wind Speed 15 mph    
Max Gust Speed 20 mph    
Visibility 11 miles    
Events      
T = Trace of Precipitation, MM = Missing Value Source: NWS Daily Summary

Daily Weather History Graph

Daily Weather History Graph

Search for Another Location

Airport or City:

Trip Planner

Search our weather history database for the weather conditions in past years. The results will help you decide how hot, cold, wet, or windy it might be!

Date:

Astronomy

Aug. 07, 2014 Rise Set
Actual Time 6:30 AM MDT 8:34 PM MDT
Civil Twilight 6:00 AM MDT 9:03 PM MDT
Nautical Twilight 5:24 AM MDT 9:40 PM MDT
Astronomical Twilight 4:44 AM MDT 10:19 PM MDT
Moon 5:54 PM MDT (8/7) 3:04 AM MDT (8/7)
Length of Visible Light 15h 03m
Length of Day
14h 03m
Waxing Gibbous, 87% of the Moon is Illuminated
Aug 7
Waxing Gibbous
Aug 10
Full
Aug 17
Last Quarter
Aug 25
New
Sep 2
First Quarter

Hourly Weather History & Observations

Time (MDT) Temp. Dew Point Humidity Pressure Visibility Wind Dir Wind Speed Gust Speed Precip Events Conditions
12:15 AM 66.2 °F 51.8 °F 60% 30.18 in 10.0 mi NNW 15.0 mph 19.6 mph N/A   Clear
12:35 AM 66.2 °F 53.6 °F 64% 30.18 in 10.0 mi NNW 11.5 mph - N/A   Clear
12:55 AM 64.4 °F 53.6 °F 68% 30.17 in 10.0 mi North 6.9 mph - N/A   Clear
1:15 AM 62.6 °F 53.6 °F 72% 30.16 in 10.0 mi Calm Calm - N/A   Clear
1:35 AM 62.6 °F 53.6 °F 72% 30.16 in 10.0 mi NW 6.9 mph - N/A   Clear
1:55 AM 64.4 °F 53.6 °F 68% 30.16 in 10.0 mi NW 6.9 mph - N/A   Clear
2:15 AM 62.6 °F 53.6 °F 72% 30.15 in 10.0 mi NW 8.1 mph - N/A   Clear
2:35 AM 62.6 °F 53.6 °F 72% 30.16 in 10.0 mi NNW 8.1 mph - N/A   Clear
2:55 AM 60.8 °F 53.6 °F 77% 30.15 in 10.0 mi NNE 5.8 mph - N/A   Clear
3:15 AM 60.8 °F 53.6 °F 77% 30.14 in 10.0 mi Calm Calm - N/A   Clear
3:35 AM 60.8 °F 53.6 °F 77% 30.14 in 10.0 mi Calm Calm - N/A   Clear
3:55 AM 60.8 °F 53.6 °F 77% 30.13 in 10.0 mi NE 3.5 mph - N/A   Clear
4:15 AM 57.2 °F 53.6 °F 88% 30.13 in 10.0 mi Calm Calm - N/A   Clear
4:35 AM 59.0 °F 51.8 °F 77% 30.13 in 10.0 mi SSE 3.5 mph - N/A   Clear
4:55 AM 59.0 °F 51.8 °F 77% 30.14 in 10.0 mi South 3.5 mph - N/A   Clear
5:15 AM 57.2 °F 51.8 °F 82% 30.13 in 10.0 mi SSE 5.8 mph - N/A   Clear
5:35 AM 55.4 °F 51.8 °F 88% 30.13 in 10.0 mi South 6.9 mph - N/A   Clear
5:55 AM 57.2 °F 51.8 °F 82% 30.13 in 10.0 mi SE 4.6 mph - N/A   Clear
6:15 AM 57.2 °F 51.8 °F 82% 30.14 in 8.0 mi SSE 5.8 mph - N/A   Clear
6:35 AM 57.2 °F 51.8 °F 82% 30.14 in 10.0 mi Calm Calm - N/A   Clear
6:49 AM 57.2 °F 51.8 °F 82% 30.14 in 15.0 mi Calm Calm - N/A   Partly Cloudy
7:51 AM 60.8 °F 51.8 °F 72% 30.16 in 15.0 mi Calm Calm - N/A   Partly Cloudy
8:51 AM 64.4 °F 53.6 °F 68% 30.16 in 15.0 mi Calm Calm - N/A   Partly Cloudy
9:49 AM 69.8 °F 48.2 °F 46% 30.16 in 15.0 mi Calm Calm - N/A   Scattered Clouds
10:54 AM 69.8 °F 53.6 °F 56% 30.16 in 15.0 mi Variable 4.6 mph - N/A   Scattered Clouds
11:50 AM 73.4 °F 51.8 °F 47% 30.15 in 15.0 mi Variable 5.8 mph - N/A   Scattered Clouds
2:49 PM 78.8 °F 51.8 °F 39% 30.09 in 15.0 mi SSW 9.2 mph - N/A   Mostly Cloudy
4:52 PM 80.6 °F 50.0 °F 34% 30.06 in 15.0 mi Calm Calm - N/A   Mostly Cloudy
5:47 PM 78.8 °F 51.8 °F 39% 30.05 in 15.0 mi NW 4.6 mph - N/A   Mostly Cloudy
6:57 PM 78.8 °F 57.2 °F 47% 30.05 in 15.0 mi NW 15.0 mph - N/A   Mostly Cloudy
7:57 PM 75.2 °F 53.6 °F 47% 30.06 in 15.0 mi NW 5.8 mph - N/A   Mostly Cloudy
8:50 PM 73.4 °F 53.6 °F 50% 30.07 in 15.0 mi NW 9.2 mph - N/A   Mostly Cloudy
9:15 PM 73.4 °F 53.6 °F 50% 30.08 in 1.5 mi NW 6.9 mph - N/A   Clear
9:35 PM 71.6 °F 53.6 °F 53% 30.09 in 2.5 mi WNW 9.2 mph - N/A   Clear
9:55 PM 71.6 °F 53.6 °F 53% 30.09 in 10.0 mi NW 11.5 mph - N/A   Clear
10:15 PM 71.6 °F 53.6 °F 53% 30.10 in 10.0 mi NW 10.4 mph - N/A   Scattered Clouds
10:35 PM 71.6 °F 53.6 °F 53% 30.09 in 10.0 mi NNW 5.8 mph - N/A   Partly Cloudy
10:55 PM 68.0 °F 53.6 °F 60% 30.10 in 10.0 mi NNE 3.5 mph - N/A   Scattered Clouds
11:15 PM 68.0 °F 53.6 °F 60% 30.09 in 10.0 mi NNE 3.5 mph - N/A   Partly Cloudy
11:35 PM 66.2 °F 53.6 °F 64% 30.09 in 10.0 mi NW 3.5 mph - N/A   Clear
11:55 PM 66.2 °F 53.6 °F 64% 30.10 in 10.0 mi ENE 3.5 mph - N/A   Clear